Regional Weather Roundup
Issued by NWS

Home | Current Version | Previous Version | Text Only | Print | Product List | Glossary Off
Versions: 1 2 3 4 5 6 7 8 9 10 11 12 13 14 15 16 17 18 19 20 21 22 23 24 25 26 27 28 29 30 31 32 33 34 35 36 37 38 39 40 41 42 43 44 45 46 47 48 49 50

000
ASUS43 KDTX 291310
RWRMI
MICHIGAN HOURLY REGIONAL WEATHER ROUNDUP
NATIONAL WEATHER SERVICE DETROIT/PONTIAC MI
900 AM EDT FRI APR 29 2016

NOTE: "FAIR" INDICATES FEW OR NO CLOUDS BELOW 12,000 FEET WITH NO
SIGNIFICANT WEATHER AND/OR OBSTRUCTION TO VISIBILITY.

MIZ047>049-052>055-059>063-066>070-074>076-081>083-291400-
SOUTHEAST LOWER MICHIGAN

CITY           SKY/WX    TMP DP  RH WIND       PRES   REMARKS
ADRIAN         CLOUDY    46  34  62 CALM      30.05R
ALMA           LGT RAIN  38  36  91 N3        30.09R
ANN ARBOR      CLOUDY    45  33  63 NE8       30.04R
BAD AXE        LGT RAIN  42  35  76 E5        30.10S
CARO           CLOUDY    43  33  68 E3        30.08R
DETROIT CITY   CLOUDY    42  36  79 NE5       30.05S
DETROIT        CLOUDY    43  37  79 N8        30.05R
FLINT          CLOUDY    46  34  62 N5        30.08R
GROSSE ILE     CLOUDY    45  37  76 N7        30.03S
HILLSDALE      CLOUDY    45  33  63 CALM      30.04R
HOWELL         CLOUDY    41  38  89 N5        30.05S

CITY           SKY/WX    TMP DP  RH WIND       PRES   REMARKS
JACKSON        CLOUDY    44  34  67 CALM      30.05R
LAMBERTVILLE   CLOUDY    47  33  58 CALM      30.04R
LANSING        CLOUDY    41  36  82 N9        30.07R
LAPEER         CLOUDY    42  32  67 NE3       30.06R
MASON          CLOUDY    41  37  84 NE6       30.05S
MONROE         CLOUDY    45  35  69 N5        30.03S
MT. CLEMENS    MIX PCPN  43  36  75 N6        30.04S
PONTIAC        LGT RAIN  41  34  76 N7        30.04R
PORT HOPE        N/A     42  35  76 E9        30.09R
PORT HURON     CLOUDY    43  34  70 N3        30.07R
TRI CITIES     CLOUDY    43  36  76 N9        30.09S
MIDLAND        PTSUNNY   42  33  70 CALM      30.09S
TROY           DRIZZLE   42  36  76 E5        30.06S
SAGINAW HB     CLOUDY    43  36  75 CALM      30.09R
$$
MIZ043>046-050>051-056>058-064>065-071>073-077>080-291400-
SOUTHWEST LOWER MICHIGAN

CITY           SKY/WX    TMP DP  RH WIND       PRES   REMARKS
BATTLE CREEK   CLOUDY    44  36  73 CALM      30.06R
BENTON HARBOR  CLOUDY    46  42  86 E3        30.05R
BIG RAPIDS     LGT RAIN  37  33  87 N3        30.09S
COLDWATER      CLOUDY    46  37  70 W5        30.05R
FREMONT        DRIZZLE   38  37  94 NE6       30.09R WCI  34
HOLLAND        CLOUDY    42  37  82 NE5       30.08R
GRAND RAPIDS   CLOUDY    42  36  79 NE8       30.08R
IONIA          CLOUDY    38  36  91 N7        30.07R WCI  33
KALAMAZOO      LGT RAIN  44  38  79 CALM      30.07R
LUDINGTON      LGT RAIN  37  36  98 CALM      30.12R
MARSHALL       CLOUDY    44  35  70 CALM      30.05R
MOUNT PLEASANT CLOUDY    40  32  73 CALM      30.09R
MUSKEGON       LGT RAIN  41  35  79 NE8       30.09R
SOUTH HAVEN    CLOUDY    42  42  99 CALM      30.07R FOG
$$
MIZ016>042-291400-
NORTHERN LOWER MICHIGAN

CITY           SKY/WX    TMP DP  RH WIND       PRES   REMARKS
ALPENA         CLOUDY    41  32  70 NE6       30.14R
BEAVER ISLAND  CLOUDY    41  31  68 E7        30.15S
BELLAIRE       CLOUDY    43  25  49 CALM      30.13S
CADILLAC       CLOUDY    40  27  59 NE3       30.08S
CHARLEVOIX     CLOUDY    41  28  59 E5        30.16S
FRANKFORT      CLOUDY    44  34  69 NE7       30.11S
GAYLORD        CLOUDY    39  28  64 E6        30.11R WCI  35
GRAYLING       CLOUDY    41  29  63 NE3       30.11S
HARBOR SPRINGS MOSUNNY   41  29  62 E8        30.14S
HOUGHTON LAKE  CLOUDY    40  28  62 NE8       30.10R WCI  34
MANISTEE       PTSUNNY   43  27  52 E3        30.12R
OSCODA         CLOUDY    43  34  69 NE3       30.12R
PELLSTON       CLOUDY    40  31  70 VRB3      30.15S
ROGERS CITY    CLOUDY    38  32  80 CALM      30.16R
TRAVERSE CITY  CLOUDY    43  30  60 N6        30.11S
$$
MIZ007>008-015-291400-
EASTERN UPPER MICHIGAN

CITY           SKY/WX    TMP DP  RH WIND       PRES   REMARKS
KINROSS          N/A     43  28  56 E5        30.16R
MACKINAC ISLAN MOSUNNY   40  31  70 E5        30.15S
NEWBERRY       PTSUNNY   42  30  63 E3        30.15S
S. S. MARIE    CLOUDY    42  28  57 E6        30.16R
MUNISING         N/A     39  34  82 CALM      30.16R
$$
MIZ004>006-011>014-085-291400-
CENTRAL UPPER MICHIGAN

CITY           SKY/WX    TMP DP  RH WIND       PRES   REMARKS
MANISTIQUE     CLOUDY    42  31  65 NE6       30.15R
ESCANABA       CLOUDY    41  30  65 NE7       30.15S
MENOMINEE      CLOUDY    41  28  60 NE6       30.15R
SAWYER-GWINN   CLOUDY    37  27  65 NE6       30.17R WCI  33
$$
MIZ001>003-009>011-084-291400-
WESTERN UPPER MICHIGAN

CITY           SKY/WX    TMP DP  RH WIND       PRES   REMARKS
IRON MOUNTAIN  CLOUDY    42  27  55 N7        30.14R
HOUGHTON       MOSUNNY   41  28  60 W5        30.15S
COPPER HARBOR    N/A     39  31  72 N10       30.17R WCI  32
IRONWOOD       SUNNY     34  30  86 CALM      30.14S
$$

ABBREVIATIONS USED IN REMARKS
   TC - TEMPERATURE IN CELSIUS
  WCI - WIND CHILL INDEX
   HX - HEAT INDEX
  VSB - VISIBILITY





USA.gov is the U.S. government's official web portal to all federal, state and local government web resources and services.